This demonstration page uses our WeatherBlox Daily Observations layout. Learn more.

Hourly Observations for March 29, 2015

Temp ( °F °C ) Dew Point ( °F °C ) Humidity (%) Winds ( mph kmh ) Pressure ( in mb ) Visibility ( mi km ) Precip ( " mm )
12:15 am 00:15 Clear 52 11.1 37 2.6 56 56 S 15 24 29.77 1008 10 16.0934 0 0
12:35 am 00:35 Clear 51 10.8 37 2.7 58 58 S 13 20 29.77 1008 10 16.0934 0 0
12:55 am 00:55 Clear 51 10.7 37 2.8 58 58 N 7 11 29.8 1009 10 16.0934 0 0
1:15 am 01:15 Clear 50 10 37 2.9 62 62 S 10 17 29.83 1010 10 16.0934 0 0
1:35 am 01:35 Clear 51 10.3 37 3 61 61 SW 7 11 29.83 1010 10 16.0934 0 0
1:55 am 01:55 Clear 49 9.7 37 2.8 62 62 Calm 29.83 1010 10 16.0934 0 0
2:15 am 02:15 Partly Cloudy 49 9.6 38 3.1 64 64 SSW 6 9 29.85 1011 10 16.0934 0 0
2:35 am 02:35 Mostly Cloudy 48 8.9 37 3 67 67 Calm 29.83 1010 10 16.0934 0 0
2:55 am 02:55 Partly Cloudy 49 9.6 38 3.3 65 65 SSW 9 15 29.8 1009 10 16.0934 0 0
3:15 am 03:15 Clear 53 11.4 40 4.2 62 62 SSW 14 22 29.77 1008 10 16.0934 0 0
3:35 am 03:35 Clear 55 12.5 40 4.7 59 59 WSW 14 22 29.8 1009 10 16.0934 0 0
3:55 am 03:55 Clear 58 14.7 38 3.6 48 48 W 16 26 29.77 1008 10 16.0934 0 0
4:15 am 04:15 Clear 57 14 38 3.2 48 48 NNW 18 30 29.83 1010 10 16.0934 0 0
4:35 am 04:35 Clear 58 14.5 36 2.3 44 44 N 22 35 29.83 1010 10 16.0934 0 0
4:55 am 04:55 Clear 57 13.7 35 1.4 43 43 N 15 24 29.88 1012 10 16.0934 0 0
5:15 am 05:15 Clear 55 13 34 1.2 45 45 N 13 20 29.88 1012 10 16.0934 0 0
5:35 am 05:35 Clear 55 12.6 34 1.1 46 46 N 10 17 29.88 1012 10 16.0934 0 0
5:55 am 05:55 Clear 54 12.2 34 1.1 47 47 N 12 19 29.88 1012 10 16.0934 0 0
6:15 am 06:15 Clear 53 11.5 35 1.6 51 51 N 12 19 29.91 1013 10 16.0934 0 0
6:35 am 06:35 Clear 51 10.6 35 1.8 55 55 NNW 7 11 29.94 1014 10 16.0934 0 0
6:55 am 06:55 Clear 49 9.2 35 1.7 60 60 NW 8 13 29.97 1015 10 16.0934 0 0
7:15 am 07:15 Clear 46 7.7 33 0.5 61 61 NW 8 13 30 1016 10 16.0934 0 0
7:35 am 07:35 Sunny 46 7.5 32 0 59 59 NW 9 15 30 1016 10 16.0934 0 0
7:55 am 07:55 Sunny 45 7.4 33 0.5 62 62 WNW 7 11 30.03 1017 10 16.0934 0 0
8:15 am 08:15 Sunny 48 8.7 33 0.7 58 58 WNW 14 22 30.03 1017 10 16.0934 0 0
8:35 am 08:35 Sunny 51 10.7 32 0 48 48 NW 21 33 30.03 1017 10 16.0934 0 0
8:55 am 08:55 Sunny 52 11.3 26 -3.1 37 37 NW 17 28 30.03 1017 10 16.0934 0 0
9:15 am 09:15 Sunny 52 11 26 -3.6 36 36 NNW 18 30 30.06 1018 10 16.0934 0 0
9:35 am 09:35 Sunny 53 11.5 28 -2.1 39 39 NNW 23 37 30.06 1018 10 16.0934 0 0
9:55 am 09:55 Sunny 55 12.9 32 0 41 41 NNW 23 37 30.06 1018 10 16.0934 0 0
10:15 am 10:15 Sunny 56 13.6 32 0 40 40 NNW 30 48 30.06 1018 10 16.0934 0 0
10:35 am 10:35 Sunny 57 14 29 -1.4 35 35 NNW 29 46 30.06 1018 7 11.26538 0 0
10:55 am 10:55 Sunny 57 14 30 -1.3 35 35 NW 33 54 30.06 1018 10 16.0934 0 0
11:15 am 11:15 Sunny 58 14.2 28 -2 33 33 NW 25 41 30.09 1019 10 16.0934 0 0
11:35 am 11:35 Sunny 58 14.5 29 -1.6 33 33 NNW 24 39 30.09 1019 10 16.0934 0 0
11:55 am 11:55 Sunny 59 14.9 29 -1.5 33 33 NNW 22 35 30.09 1019 10 16.0934 0 0
12:15 pm 12:15 Sunny 59 15 29 -1.5 32 32 NNW 28 44 30.09 1019 10 16.0934 0 0
12:35 pm 12:35 Sunny 60 15.6 29 -1.4 31 31 N 30 48 30.09 1019 10 16.0934 0 0
12:55 pm 12:55 Sunny 60 15.5 29 -1.5 31 31 NNW 23 37 30.09 1019 10 16.0934 0 0
1:15 pm 13:15 Sunny 61 15.9 22 -5.6 22 22 NNW 25 41 30.09 1019 10 16.0934 0 0
1:35 pm 13:35 Sunny 62 16.4 25 -4 25 25 NNW 21 33 30.09 1019 10 16.0934 0 0
1:55 pm 13:55 Sunny 62 16.6 22 -5.7 21 21 NNW 24 39 30.09 1019 10 16.0934 0 0
2:15 pm 14:15 Sunny 62 16.6 14 -9.9 15 15 N 20 31 30.09 1019 10 16.0934 0 0
2:35 pm 14:35 Sunny 63 17.1 11 -11.9 13 13 N 20 31 30.09 1019 10 16.0934 0 0
2:55 pm 14:55 Sunny 63 17 9 -12.6 12 12 N 17 28 30.09 1019 10 16.0934 0 0
3:15 pm 15:15 Sunny 63 17.3 10 -12.2 12 12 N 20 31 30.09 1019 10 16.0934 0 0
3:35 pm 15:35 Sunny 64 17.5 10 -12.2 12 12 N 16 26 30.06 1018 10 16.0934 0 0
3:55 pm 15:55 Sunny 63 17.4 10 -12 12 12 NNW 17 28 30.09 1019 10 16.0934 0 0
4:15 pm 16:15 Sunny 63 17.3 11 -11.7 13 13 NNW 18 30 30.09 1019 10 16.0934 0 0
4:35 pm 16:35 Sunny 63 17.4 10 -12.3 12 12 N 18 30 30.09 1019 10 16.0934 0 0
4:55 pm 16:55 Sunny 64 17.5 10 -12 12 12 N 13 20 30.06 1018 10 16.0934 0 0
5:15 pm 17:15 Sunny 63 17.1 10 -12.1 12 12 NNW 20 31 30.09 1019 10 16.0934 0 0
5:35 pm 17:35 Sunny 63 17.2 11 -11.7 13 13 N 15 24 30.09 1019 10 16.0934 0 0
5:55 pm 17:55 Sunny 63 17 10 -12 13 13 N 16 26 30.09 1019 10 16.0934 0 0
6:15 pm 18:15 Sunny 62 16.9 11 -11.9 13 13 NNW 13 20 30.09 1019 10 16.0934 0 0
6:35 pm 18:35 Sunny 62 16.5 11 -11.9 13 13 N 9 15 30.09 1019 10 16.0934 0 0
6:55 pm 18:55 Sunny 61 16 11 -11.9 14 14 N 12 19 30.09 1019 10 16.0934 0 0
7:15 pm 19:15 Sunny 60 15.5 11 -11.8 14 14 N 8 13 30.09 1019 10 16.0934 0 0
7:35 pm 19:35 Sunny 58 14.5 11 -11.8 15 15 N 6 9 30.09 1019 10 16.0934 0 0
7:55 pm 19:55 Sunny 54 12.4 10 -12.4 17 17 N 3 6 30.12 1020 10 16.0934 0 0
8:15 pm 20:15 Clear 52 11.1 11 -11.4 20 20 N 5 7 30.12 1020 10 16.0934 0 0
8:35 pm 20:35 Clear 47 8.6 10 -12.1 22 22 NNE 5 7 30.15 1021 10 16.0934 0 0
8:55 pm 20:55 Clear 46 7.8 11 -11.4 24 24 Calm 30.15 1021 10 16.0934 0 0
9:15 pm 21:15 Clear 47 8.5 11 -11.4 23 23 Calm 30.18 1022 10 16.0934 0 0
9:35 pm 21:35 Clear 45 7.1 12 -11 27 27 Calm 30.21 1023 10 16.0934 0 0
9:55 pm 21:55 Clear 44 6.7 12 -10.9 27 27 Calm 30.21 1023 10 16.0934 0 0
10:15 pm 22:15 Clear 42 5.3 12 -11.1 30 30 Calm 30.21 1023 10 16.0934 0 0
10:35 pm 22:35 Clear 41 5 12 -11.2 30 30 Calm 30.21 1023 10 16.0934 0 0
10:55 pm 22:55 Clear 41 4.8 12 -11 31 31 SSE 3 6 30.18 1022 10 16.0934 0 0
11:15 pm 23:15 Clear 41 5.2 11 -11.4 29 29 SSE 3 6 30.18 1022 10 16.0934 0 0
11:35 pm 23:35 Clear 40 4.2 11 -11.6 31 31 S 5 7 30.18 1022 10 16.0934 0 0
11:55 pm 23:55 Clear 39 3.9 12 -11.2 33 33 S 5 7 30.18 1022 10 16.0934 0 0

Powered by AerisWeather